Terminal Aerodrome Forecast
Issued by NWS

Current Version | Previous Version | Text Only | Print | Product List | Glossary On
Versions: 1 2 3 4 5 6 7 8 9 10 11 12 13 14 15 16 17 18 19 20 21 22 23 24 25 26 27 28 29 30 31 32 33 34 35 36 37 38 39 40 41 42 43 44 45 46 47 48 49 50
000
FTUS41 KCTP 020433 AAC
TAFLNS
TAF AMD
KLNS 020433Z 0205/0224 32015G30KT 3SM SHRA BR SCT025 BKN040
     FM020600 VRB05KT 5SM BR SCT025
     FM020900 VRB03KT 3SM BR SCT100
     FM021500 26005KT P6SM SCT050=

USA.gov is the U.S. government's official web portal to all federal, state and local government web resources and services.